Regional Weather Roundup
Issued by NWS

Home | Current Version | Previous Version | Graphics & Text | Print | Product List | Glossary On
Versions: 1 2 3 4 5 6 7 8 9 10 11 12 13 14 15 16 17 18 19 20 21 22 23 24 25 26 27 28 29 30 31 32 33 34 35 36 37 38 39 40 41 42 43 44 45 46 47 48 49 50
839
ASUS44 KLIX 300510
RWRLA
LOUISIANA WEATHER ROUNDUP
NATIONAL WEATHER SERVICE NEW ORLEANS LA
1200 AM CDT WED JUL 30 2014

NOTE: "FAIR" INDICATES FEW OR NO CLOUDS BELOW 12,000 FEET WITH NO
      SIGNIFICANT WEATHER AND/OR OBSTRUCTIONS TO VISIBILITY.
      SKY/WX - SKY CONDITION AND SIGNIFICANT WEATHER.
      TMP - AIR TEMPERATURE.    DP   - DEWPOINT TEMPERATURE.
      RH  - RELATIVE HUMIDITY.  PRES - PRESSURE.
      HX  - HEAT INDEX.         WCI  - WIND CHILL INDEX.

*  THESE STATIONS ARE NOT NWS OR FAA STATIONS AND ARE NOT UNDER
   NWS QUALITY CONTROL.

LAZ040-048-061>063-065-066-069-300600-
SOUTHEAST LOUISIANA

CITY           SKY/WX    TMP DP  RH WIND       PRES   REMARKS
N.O. AUDUBON     N/A     78  68  71 MISG        N/A
N.O. INTL ARPT PTCLDY    81  68  64 N13       30.04S
N.O. LAKEFRONT PTCLDY    83  68  60 NE22      30.05R
N.O. DOWNTOWN* FAIR      84  63  48 N7        30.04F
SLIDELL        CLEAR     74  68  81 CALM      30.05R
BATON ROUGE    CLEAR     75  67  76 NE6       30.06R
BOOTHVILLE     CLEAR     78  71  79 W3        30.04F
BELLE CHASSE   PTCLDY    72  68  87 CALM      30.04R
BOGALUSA*      FAIR      73  67  81 CALM      30.07S
GALLIANO*      NOT AVBL
NEW ROADS*     FAIR      74  68  83 NE6       30.07R
GONZALES*      FAIR      72  71  99 CALM      30.05S
HAMMOND*       CLEAR     75  64  69 N3        30.07R
HOUMA*         CLEAR     74  67  78 N3        30.05R
PORT FOURCHON* CLEAR     82  70  65 CALM      30.06S

$$

LAZ041-044-053-054-300600-
SOUTHWEST LOUISIANA

CITY           SKY/WX    TMP DP  RH WIND       PRES   REMARKS
LAKE CHARLES   CLEAR     74  71  91 CALM      30.04S
LAFAYETTE      CLEAR     76  73  91 CALM      30.05S
PATTERSON      CLEAR     73  72  94 CALM      30.09S
SALT POINT       N/A     78  71  79 CALM      30.04S
NEW IBERIA     CLEAR     74  70  87 CALM      30.05S
CHENAULT AIRPK CLEAR     75  70  83 CALM      30.05F

$$

LAZ027-028-300600-
CENTRAL LOUISIANA

CITY           SKY/WX    TMP DP  RH WIND       PRES   REMARKS
FORT POLK      CLEAR     73  70  90 NE6       30.06R
ALEXANDRIA INT CLEAR     76  68  76 NE5       30.05R
ALEXANDRIA     CLEAR     74  69  85 CALM      30.07R

$$

LAZ001-002-300600-
NORTHWEST LOUISIANA

CITY           SKY/WX    TMP DP  RH WIND       PRES   REMARKS
SHREVEPORT     PTCLDY    78  65  63 E9        30.06R
BARKSDALE AFB  CLEAR     76  64  68 E5        30.07R
DTN SHREVEPORT CLEAR     75  64  68 E5        30.07R

$$

LAZ014-016-300600-
NORTHEAST LOUISIANA

CITY           SKY/WX    TMP DP  RH WIND       PRES   REMARKS
MONROE         CLEAR     72  63  73 E5        30.09S
TALLULAH       CLEAR     70  61  73 NE6       30.08S

$$




USA.gov is the U.S. government's official web portal to all federal, state and local government web resources and services.